Retour au catalogue

STARLINK-34709

ActifCommunicationsSSO
NORAD 64844·PAYLOAD·🇺🇸 United States

Lancé Jul 19, 2025 depuis Vandenberg Space Force Base

Loading…

Prochains Passages (prochaines 24 heures)

TLE

FraisSource: CelesTrak SupGP

Époque: Sep 14, 2026, 22:47 UTC

1 64844C 25152C   26257.94979167  .00088111  00000+0  27355-2 0  2574
2 64844  97.2846 108.5058 0001852  96.8369  66.7182 15.33390679    15

Suivez STARLINK-34709 en temps réel avec AllMySat

Download on the App Store